Custer, SD

2:29 PM MDT on April 29, 2017 (GMT -0600)
Custer County

Weather History for KCUT - May, 2013

Change the Weather History Date:

Friday, May 17, 2013

  Actual Average Record
Temperature  
Mean Temperature 56 °F 48 °F  
Max Temperature 69 °F 61 °F 83 °F (1948)
Min Temperature 43 °F 36 °F 23 °F (1968)
Degree Days  
Heating Degree Days 9 16  
Month to date heating degree days 290 318  
Since 1 July heating degree days 7894 7968  
Cooling Degree Days 0 0  
Month to date cooling degree days 2 0  
Year to date cooling degree days 2 0  
Growing Degree Days 6 (Base 50)    
Moisture  
Dew Point 48 °F    
Average Humidity 78    
Maximum Humidity 100    
Minimum Humidity 55    
Precipitation  
Precipitation T in 0.09 in 1.16 in (1981)
Month to date precipitation 0.31 1.58  
Year to date precipitation 5.61 5.57  
Sea Level Pressure  
Sea Level Pressure 29.75 in    
Wind  
Wind Speed 7 mph (ENE)    
Max Wind Speed 16 mph    
Max Gust Speed 24 mph    
Visibility 10 miles    
Events      
T = Trace of Precipitation, MM = Missing Value Source: NWS Daily Summary

Daily Weather History Graph

Daily Weather History Graph

Search for Another Location

Airport or City:

Trip Planner

Search our weather history database for the weather conditions in past years. The results will help you decide how hot, cold, wet, or windy it might be!

Date:

Astronomy

May. 17, 2013 Rise Set
Actual Time 5:26 AM MDT 8:15 PM MDT
Civil Twilight 4:53 AM MDT 8:49 PM MDT
Nautical Twilight 4:11 AM MDT 9:31 PM MDT
Astronomical Twilight 3:22 AM MDT 10:21 PM MDT
Moon 12:07 PM MDT (5/17) 1:04 AM MDT (5/17)
Length of Visible Light 15h 55m
Length of Day
14h 48m
Waxing Crescent, 46% of the Moon is Illuminated
May 17
Waxing Crescent
May 17
First Quarter
May 24
Full
May 31
Last Quarter
Jun 8
New

Hourly Weather History & Observations

Time (MDT) Temp. Windchill Dew Point Humidity Pressure Visibility Wind Dir Wind Speed Gust Speed Precip Events Conditions
12:53 AM 45.0 °F 42.6 °F 44.1 °F 97% 29.79 in 10.0 mi NW 4.6 mph - N/A   Clear
1:53 AM 44.1 °F 40.8 °F 42.1 °F 93% 29.78 in 10.0 mi WNW 5.8 mph - N/A   Clear
2:53 AM 45.0 °F - 42.1 °F 90% 29.77 in 10.0 mi Calm Calm - N/A   Partly Cloudy
3:53 AM 43.0 °F - 41.0 °F 93% 29.78 in 10.0 mi Calm Calm - N/A   Clear
4:53 AM 44.1 °F 42.5 °F 42.1 °F 93% 29.80 in 10.0 mi West 3.5 mph - N/A   Overcast
5:53 AM 52.0 °F - 45.0 °F 77% 29.81 in 10.0 mi West 6.9 mph - 0.00 in   Overcast
6:53 AM 48.9 °F - 46.0 °F 90% 29.82 in 10.0 mi Calm Calm - 0.00 in   Clear
7:53 AM 57.0 °F - 51.1 °F 81% 29.80 in 10.0 mi Calm Calm - N/A   Clear
8:53 AM 62.1 °F - 50.0 °F 65% 29.79 in 10.0 mi ESE 5.8 mph - N/A   Clear
9:53 AM 63.0 °F - 51.1 °F 65% 29.78 in 10.0 mi ENE 6.9 mph - N/A   Clear
10:53 AM 64.9 °F - 51.1 °F 61% 29.78 in 10.0 mi East 6.9 mph - N/A   Clear
11:53 AM 66.9 °F - 51.1 °F 57% 29.77 in 10.0 mi ENE 12.7 mph - N/A   Partly Cloudy
12:53 PM 66.9 °F - 50.0 °F 54% 29.78 in 10.0 mi ENE 11.5 mph - N/A   Clear
1:53 PM 66.9 °F - 51.1 °F 57% 29.77 in 10.0 mi ESE 12.7 mph - N/A   Clear
2:53 PM 66.9 °F - 51.1 °F 57% 29.76 in 10.0 mi ESE 13.8 mph 19.6 mph N/A   Clear
3:53 PM 68.0 °F - 51.1 °F 55% 29.73 in 10.0 mi East 9.2 mph 18.4 mph N/A   Clear
4:53 PM 68.0 °F - 51.1 °F 55% 29.70 in 10.0 mi East 12.7 mph - N/A   Clear
5:53 PM 66.0 °F - 52.0 °F 60% 29.69 in 10.0 mi East 11.5 mph 18.4 mph N/A   Clear
6:53 PM 64.9 °F - 52.0 °F 63% 29.69 in 10.0 mi ENE 11.5 mph - N/A   Clear
7:53 PM 62.1 °F - 51.1 °F 67% 29.68 in 10.0 mi ENE 6.9 mph - N/A   Clear
8:53 PM 60.1 °F - 50.0 °F 69% 29.68 in 10.0 mi East 8.1 mph - N/A   Clear
9:53 PM 57.9 °F - 51.1 °F 78% 29.70 in 10.0 mi ENE 6.9 mph - N/A   Clear
10:53 PM 54.0 °F - 48.9 °F 83% 29.71 in 10.0 mi NW 5.8 mph - N/A   Clear
11:53 PM 54.0 °F - 46.9 °F 77% 29.73 in 10.0 mi East 3.5 mph - N/A   Clear